• In Hungary
  • List of Countries
  • For 7 days
  • Water Temperature
  • Satellite Maps
  • Weather Map
  • News
  • Weather Widgets
  • user-avatar
    Login

    Hourly Weather Kongoussi

    Today, 22 July, Sunday

    Time Temperature Precipitation Wind Pressure Humidity
    00:00 +34°C° 0 mm 5 mps 731 mmHg 51%
    01:00 +33°C° 0 mm 5 mps 731 mmHg 55%
    02:00 +32°C° 0 mm 6 mps 731 mmHg 59%
    03:00 +30°C° 0 mm 6 mps 730 mmHg 63%
    04:00 +30°C° 0 mm 5 mps 731 mmHg 63%
    05:00 +30°C° 0 mm 5 mps 731 mmHg 64%
    06:00 +29°C° 0 mm 5 mps 731 mmHg 65%
    07:00 +30°C° 0 mm 5 mps 732 mmHg 61%
    08:00 +32°C° 0 mm 5 mps 732 mmHg 57%
    09:00 +33°C° 0 mm 5 mps 732 mmHg 54%
    10:00 +34°C° 0 mm 4 mps 732 mmHg 49%
    11:00 +35°C° 0 mm 4 mps 732 mmHg 44%
    12:00 +37°C° 0 mm 3 mps 732 mmHg 40%
    13:00 +37°C° 0 mm 3 mps 731 mmHg 40%
    14:00 +37°C° 0 mm 3 mps 731 mmHg 39%
    15:00 +37°C° 0 mm 3 mps 730 mmHg 39%
    16:00 +36°C° 0.1 mm 3 mps 730 mmHg 40%
    17:00 +36°C° 0.1 mm 3 mps 730 mmHg 40%
    18:00 +36°C° 0.1 mm 3 mps 730 mmHg 41%
    19:00 +36°C° 0 mm 3 mps 731 mmHg 42%
    20:00 +35°C° 0 mm 3 mps 731 mmHg 43%
    21:00 +35°C° 0 mm 2 mps 732 mmHg 44%
    22:00 +34°C° 0.1 mm 3 mps 732 mmHg 45%
    23:00 +34°C° 0.1 mm 3 mps 732 mmHg 47%

    Tomorrow, 23 July, Monday

    Time Temperature Precipitation Wind Pressure Humidity
    00:00 +34°C° 0.1 mm 3 mps 732 mmHg 49%
    01:00 +33°C° 0.2 mm 3 mps 732 mmHg 52%
    02:00 +31°C° 0.2 mm 3 mps 732 mmHg 55%
    03:00 +31°C° 0.2 mm 3 mps 731 mmHg 58%
    04:00 +30°C° 0 mm 4 mps 732 mmHg 60%
    05:00 +30°C° 0 mm 4 mps 732 mmHg 62%
    06:00 +30°C° 0 mm 4 mps 732 mmHg 64%
    07:00 +32°C° 0 mm 4 mps 732 mmHg 60%
    08:00 +33°C° 0 mm 5 mps 733 mmHg 56%
    09:00 +34°C° 0 mm 5 mps 733 mmHg 52%
    10:00 +35°C° 0 mm 5 mps 733 mmHg 48%
    11:00 +36°C° 0 mm 4 mps 733 mmHg 43%
    12:00 +37°C° 0 mm 4 mps 732 mmHg 38%
    13:00 +38°C° 0 mm 3 mps 732 mmHg 36%
    14:00 +39°C° 0 mm 2 mps 731 mmHg 34%
    15:00 +39°C° 0 mm 2 mps 730 mmHg 31%
    16:00 +39°C° 0 mm 2 mps 730 mmHg 31%
    17:00 +39°C° 0 mm 2 mps 730 mmHg 32%
    18:00 +39°C° 0 mm 2 mps 730 mmHg 32%
    19:00 +38°C° 0.1 mm 2 mps 731 mmHg 34%
    20:00 +38°C° 0.1 mm 3 mps 731 mmHg 35%
    21:00 +37°C° 0.1 mm 3 mps 732 mmHg 37%
    22:00 +37°C° 0.1 mm 4 mps 732 mmHg 39%
    23:00 +36°C° 0.1 mm 4 mps 732 mmHg 41%

    Day after tomorrow, 24 July, Tuesday

    Time Temperature Precipitation Wind Pressure Humidity
    00:00 +36°C° 0.1 mm 4 mps 732 mmHg 43%
    01:00 +35°C° 0.1 mm 4 mps 732 mmHg 45%
    02:00 +35°C° 0.1 mm 4 mps 731 mmHg 48%
    03:00 +34°C° 0.1 mm 4 mps 731 mmHg 50%
    04:00 +33°C° 0.3 mm 5 mps 731 mmHg 53%
    05:00 +33°C° 0.3 mm 5 mps 731 mmHg 56%
    06:00 +32°C° 0.3 mm 6 mps 731 mmHg 59%
    07:00 +33°C° 0 mm 6 mps 731 mmHg 57%
    08:00 +33°C° 0 mm 7 mps 732 mmHg 54%
    09:00 +34°C° 0 mm 7 mps 732 mmHg 52%
    10:00 +35°C° 0 mm 6 mps 732 mmHg 48%
    11:00 +38°C° 0 mm 6 mps 732 mmHg 44%
    12:00 +39°C° 0 mm 6 mps 732 mmHg 40%
    13:00 +40°C° 0 mm 5 mps 731 mmHg 37%
    14:00 +41°C° 0 mm 5 mps 730 mmHg 34%
    15:00 +41°C° 0 mm 4 mps 730 mmHg 31%
    16:00 +41°C° 0 mm 4 mps 730 mmHg 32%
    17:00 +41°C° 0 mm 4 mps 730 mmHg 32%
    18:00 +41°C° 0 mm 4 mps 730 mmHg 33%
    19:00 +40°C° 0.2 mm 4 mps 730 mmHg 35%
    20:00 +39°C° 0.2 mm 5 mps 730 mmHg 37%
    21:00 +37°C° 0.2 mm 5 mps 731 mmHg 40%
    22:00 +37°C° 0 mm 5 mps 731 mmHg 42%
    23:00 +36°C° 0 mm 6 mps 731 mmHg 45%

    25 July, Wednesday

    Time Temperature Precipitation Wind Pressure Humidity
    00:00 +35°C° 0 mm 6 mps 731 mmHg 47%
    01:00 +35°C° 0.1 mm 6 mps 731 mmHg 50%
    02:00 +34°C° 0.1 mm 6 mps 731 mmHg 53%
    03:00 +33°C° 0.1 mm 6 mps 731 mmHg 56%
    04:00 +33°C° 0.1 mm 7 mps 731 mmHg 59%
    05:00 +32°C° 0.1 mm 7 mps 731 mmHg 61%
    06:00 +32°C° 0.1 mm 7 mps 731 mmHg 64%
    07:00 +32°C° 0 mm 7 mps 732 mmHg 62%
    08:00 +33°C° 0 mm 6 mps 732 mmHg 60%
    09:00 +33°C° 0 mm 6 mps 733 mmHg 58%
    10:00 +34°C° 0 mm 7 mps 733 mmHg 55%
    11:00 +35°C° 0 mm 7 mps 732 mmHg 51%
    12:00 +36°C° 0 mm 7 mps 732 mmHg 48%
    13:00 +38°C° 0 mm 7 mps 731 mmHg 45%
    14:00 +39°C° 0 mm 7 mps 731 mmHg 42%
    15:00 +39°C° 0 mm 7 mps 730 mmHg 40%
    16:00 +39°C° 0 mm 6 mps 730 mmHg 40%
    17:00 +39°C° 0 mm 6 mps 730 mmHg 41%
    18:00 +37°C° 0 mm 5 mps 730 mmHg 42%
    19:00 +37°C° 0.7 mm 5 mps 731 mmHg 45%
    20:00 +36°C° 0.7 mm 5 mps 731 mmHg 47%
    21:00 +35°C° 0.7 mm 5 mps 731 mmHg 50%
    22:00 +34°C° 3.3 mm 5 mps 731 mmHg 55%
    23:00 +33°C° 3.3 mm 6 mps 732 mmHg 61%

    26 July, Thursday

    Time Temperature Precipitation Wind Pressure Humidity
    00:00 +32°C° 3.3 mm 7 mps 732 mmHg 66%
    01:00 +30°C° 4.5 mm 7 mps 731 mmHg 68%
    02:00 +29°C° 4.5 mm 7 mps 731 mmHg 70%
    03:00 +29°C° 4.5 mm 7 mps 731 mmHg 71%
    04:00 +29°C° 3.3 mm 6 mps 731 mmHg 72%
    05:00 +28°C° 3.3 mm 5 mps 731 mmHg 74%
    06:00 +28°C° 3.3 mm 5 mps 732 mmHg 75%
    07:00 +28°C° 0.8 mm 5 mps 732 mmHg 74%
    08:00 +28°C° 0.8 mm 5 mps 733 mmHg 73%
    09:00 +28°C° 0.8 mm 6 mps 733 mmHg 72%
    10:00 +30°C° 0.1 mm 6 mps 733 mmHg 67%
    11:00 +32°C° 0.1 mm 6 mps 733 mmHg 61%
    12:00 +33°C° 0.1 mm 7 mps 732 mmHg 56%
    13:00 +34°C° 0 mm 7 mps 732 mmHg 53%
    14:00 +34°C° 0 mm 6 mps 731 mmHg 51%
    15:00 +35°C° 0 mm 6 mps 731 mmHg 48%
    16:00 +34°C° 0 mm 6 mps 731 mmHg 49%
    17:00 +34°C° 0 mm 5 mps 731 mmHg 50%
    18:00 +34°C° 0 mm 5 mps 731 mmHg 51%
    19:00 +33°C° 0 mm 5 mps 731 mmHg 54%
    20:00 +32°C° 0 mm 4 mps 732 mmHg 56%
    21:00 +32°C° 0 mm 4 mps 732 mmHg 59%
    22:00 +30°C° 0 mm 4 mps 732 mmHg 60%
    23:00 +30°C° 0 mm 3 mps 732 mmHg 62%

    27 July, Friday

    Time Temperature Precipitation Wind Pressure Humidity
    00:00 +30°C° 0 mm 3 mps 732 mmHg 63%
    01:00 +29°C° 0 mm 3 mps 732 mmHg 65%
    02:00 +29°C° 0 mm 3 mps 732 mmHg 66%
    03:00 +29°C° 0 mm 3 mps 731 mmHg 67%
    04:00 +28°C° 0 mm 3 mps 732 mmHg 69%
    05:00 +28°C° 0 mm 3 mps 732 mmHg 70%
    06:00 +28°C° 0 mm 3 mps 732 mmHg 71%
    07:00 +29°C° 0 mm 4 mps 733 mmHg 67%
    08:00 +30°C° 0 mm 4 mps 733 mmHg 62%
    09:00 +32°C° 0 mm 5 mps 734 mmHg 57%
    10:00 +34°C° 0 mm 5 mps 733 mmHg 51%
    11:00 +35°C° 0 mm 5 mps 733 mmHg 46%
    12:00 +36°C° 0 mm 5 mps 732 mmHg 41%
    13:00 +37°C° 0 mm 5 mps 731 mmHg 39%
    14:00 +37°C° 0 mm 5 mps 731 mmHg 37%
    15:00 +38°C° 0 mm 4 mps 730 mmHg 35%
    16:00 +38°C° 0 mm 4 mps 730 mmHg 35%
    17:00 +38°C° 0 mm 3 mps 730 mmHg 35%
    18:00 +37°C° 0 mm 3 mps 731 mmHg 35%
    19:00 +37°C° 0 mm 3 mps 731 mmHg 38%
    20:00 +36°C° 0 mm 3 mps 731 mmHg 40%
    21:00 +36°C° 0 mm 3 mps 732 mmHg 42%
    22:00 +35°C° 0 mm 4 mps 732 mmHg 44%
    23:00 +34°C° 0 mm 4 mps 732 mmHg 47%
    Show more